GLOBALSTAR M046 [-]

Last updated on July 6, 2021, 3:36 p.m. UTC

1 25651U 99012C   21187.19071508 -.00000158  00000-0 -76950-3 0  9996
2 25651  52.0042 253.4343 0002382 234.1189 160.7422 12.09350782  9548
UTC
Height (km)
Latitude
Longitude
Inclination
Orbital Period
UTC large
Height (km)
Speed (km/s)
/
Latitude / Longitude
Inclination (degrees)
Orbital Period (minutes)
Azimuth
Elevation
Range (km)
Doppler Factor
iOS Compass Heading
iOS Angle